Home   Weather   Altdorf   Past weeks

Flag for Switzerland Past Weather in Altdorf, Uri, Switzerland — Yesterday and Last 2 Weeks

Now
25 °F

Chilly.


Feels Like: 25 °F
Forecast: 4 / 34 °F
Wind: 2 mph from Southeast

Location: Altdorf

Current Time: Jan 23, 2017 at 5:50:47 am

Latest Report: Jan 23, 2017 at 5:00 am


Visibility: N/A

Pressure: 30.30 "Hg

Humidity: 93%

Dew Point: 24 °F

Location of AltdorfLocation

Past Weather in Altdorf — Graph

°F

Altdorf Temperature Yesterday

Maximum temperature yesterday: 29 °F (at 2:00 pm)
Minimum temperature yesterday: 27 °F (at 8:00 am)
Average temperature yesterday: 28 °F

High & Low Weather Summary for the Past Weeks

 TemperatureHumidityPressure
High48 °F (Jan 13, 12:00 am)98% (Jan 10, 9:00 pm)30.55 "Hg (Jan 10, 9:00 pm)
Low12 °F (Jan 18, 10:00 am)48% (Jan 13, 9:00 am)29.50 "Hg (Jan 13, 1:00 am)
Average29 °F81%30.24 "Hg
* Reported Jan 8 4:00 am — Jan 23 4:00 am, Altdorf, Weather by CustomWeather, © 2017

Note: Actual official high and low records may vary slightly from our data, if they occured in-between our weather recording intervals... More about our weather records

Advertising

Altdorf Weather History for the Previous 24 Hours

Scroll right to see more
 ConditionsComfort  
Time TempWeatherWind HumidityBarometerVisibility
4:00 am
Mon, Jan 23
25 °FLow clouds.2 mph93%30.30 "Hg9 mi
3:00 am26 °FChilly.5 mph91%30.31 "HgN/A
2:00 am26 °FChilly.3 mph91%30.32 "HgN/A
1:00 am27 °FLow clouds.3 mph90%30.31 "Hg9 mi
12:00 am27 °FChilly.3 mph90%30.32 "HgN/A
11:00 pm
Sun, Jan 22
28 °FChilly.1 mph90%30.32 "HgN/A
10:00 pm28 °FLow clouds.1 mph88%30.32 "Hg9 mi
9:00 pm28 °FChilly.3 mph90%30.31 "HgN/A
8:00 pm28 °FChilly.1 mph86%30.30 "HgN/A
7:00 pm27 °FLow clouds.1 mph89%30.29 "Hg9 mi
6:00 pm28 °FChilly.1 mph88%30.28 "HgN/A
5:00 pm28 °FChilly.2 mph86%30.29 "HgN/A
4:00 pm28 °FLow clouds.3 mph85%30.28 "Hg9 mi
3:00 pm28 °FChilly.6 mph84%30.27 "HgN/A
2:00 pm29 °FChilly.8 mph84%30.27 "HgN/A
1:00 pm28 °FFog.6 mph85%30.29 "Hg1 mi
12:00 pm28 °FChilly.5 mph84%30.31 "HgN/A
11:00 am28 °FChilly.5 mph84%30.33 "HgN/A
10:00 am27 °FChilly.6 mph86%30.33 "HgN/A
9:00 am27 °FChilly.2 mph86%30.33 "HgN/A
8:00 am27 °FChilly.3 mph87%30.33 "HgN/A
7:00 am27 °FOvercast.2 mph88%30.32 "Hg9 mi
6:00 am28 °FChilly.2 mph88%30.33 "HgN/A
5:00 am27 °FChilly.2 mph86%30.35 "HgN/A
Weather by CustomWeather, © 2017

See weather overviewHow to use our weather pages